Weather History for Alliance, NE

Change the Weather History Date:

Sunday, February 10, 2013

  Actual Average Record
Temperature  
Mean Temperature 21 °F 26 °F  
Max Temperature 30 °F 40 °F 74 °F (1962)
Min Temperature 11 °F 12 °F -28 °F (1986)
Degree Days  
Heating Degree Days 44 39  
Month to date heating degree days 327 397  
Since 1 July heating degree days 4396 4742  
Cooling Degree Days 0 0  
Month to date cooling degree days 0 0  
Year to date cooling degree days 0 0  
Moisture  
Dew Point 21 °F    
Average Humidity 79    
Maximum Humidity 92    
Minimum Humidity 65    
Precipitation  
Precipitation T in 0.01 in 0.40 in (1934)
Month to date precipitation T 0.12  
Year to date precipitation 0.22 0.30  
Sea Level Pressure  
Sea Level Pressure 29.68 in    
Wind  
Wind Speed 21 mph (NNW)    
Max Wind Speed 35 mph    
Max Gust Speed 45 mph    
Visibility 3 miles    
Events Fog , Snow    
T = Trace of Precipitation, MM = Missing Value Source: NWS Daily Summary

Daily Weather History Graph

Daily Weather History Graph

Search for Another Location

Airport:

Trip Planner

Search our weather history database for the weather conditions in past years. The results will help you decide how hot, cold, wet, or windy it might be!

Date:

Astronomy

Feb. 10, 2013 Rise Set
Actual Time 6:53 AM MST 5:18 PM MST
Civil Twilight 6:24 AM MST 5:47 PM MST
Nautical Twilight 5:51 AM MST 6:19 PM MST
Astronomical Twilight 5:19 AM MST 6:52 PM MST
Moon 6:43 AM MST (2/10) 6:13 PM MST (2/10)
Length of Visible Light 11h 22m
Length of Day
10h 24m
New Moon, 0% of the Moon is Illuminated
Feb 10
New Moon
Feb 17
First Quarter
Feb 25
Full
Mar 4
Last Quarter
Mar 11
New

Hourly Weather History & Observations

Time (MST) Temp. Windchill Dew Point Humidity Pressure Visibility Wind Dir Wind Speed Gust Speed Precip Events Conditions
12:30 AM 21.2 °F 4.5 °F 19.4 °F 93% 29.48 in 0.5 mi North 24.2 mph 35.7 mph 0.00 in Fog Light Freezing Fog
12:53 AM 21.9 °F 4.8 °F 19.9 °F 92% 29.57 in 1.0 mi North 26.5 mph 32.2 mph 0.00 in   Mist
12:59 AM 21.2 °F 4.9 °F 19.4 °F 93% 29.48 in 1.2 mi North 23.0 mph 32.2 mph N/A   Overcast
1:09 AM 21.2 °F 4.9 °F 19.4 °F 93% 29.48 in 1.8 mi North 23.0 mph - N/A   Overcast
1:32 AM 21.2 °F 4.9 °F 19.4 °F 93% 29.48 in 2.5 mi North 23.0 mph 31.1 mph N/A   Overcast
1:53 AM 23.0 °F 7.2 °F 19.9 °F 88% 29.57 in 2.5 mi North 23.0 mph 29.9 mph N/A   Overcast
1:59 AM 23.0 °F 6.0 °F 19.4 °F 86% 29.48 in 3.0 mi North 27.6 mph 33.4 mph N/A   Overcast
2:14 AM 23.0 °F 5.4 °F 19.4 °F 86% 29.48 in 2.0 mi North 29.9 mph 35.7 mph N/A   Overcast
2:22 AM 23.0 °F 6.0 °F 19.4 °F 86% 29.48 in 1.8 mi North 27.6 mph 36.8 mph N/A   Overcast
2:32 AM 23.0 °F 5.1 °F 21.2 °F 93% 29.48 in 1.0 mi North 31.1 mph 40.3 mph N/A   Overcast
2:43 AM 24.8 °F 7.3 °F 21.2 °F 86% 29.47 in 0.8 mi North 32.2 mph 40.3 mph N/A   Overcast
2:50 AM 24.8 °F 6.8 °F 21.2 °F 86% 29.47 in 0.5 mi North 34.5 mph 44.9 mph N/A Fog Light Freezing Fog
2:53 AM 24.1 °F 6.1 °F 21.0 °F 88% 29.56 in 0.5 mi North 33.4 mph 44.9 mph N/A Fog Light Freezing Fog
3:53 AM 24.1 °F 7.1 °F 21.0 °F 88% 29.59 in 0.8 mi North 28.8 mph 39.1 mph N/A   Mist
4:26 AM 24.8 °F 8.4 °F 21.2 °F 86% 29.51 in 1.0 mi NNW 27.6 mph 36.8 mph N/A   Mist
4:30 AM 24.8 °F 9.0 °F 21.2 °F 86% 29.51 in 1.2 mi NNW 25.3 mph 34.5 mph N/A   Overcast
4:37 AM 24.8 °F 8.7 °F 21.2 °F 86% 29.51 in 1.5 mi NNW 26.5 mph 34.5 mph N/A   Overcast
4:53 AM 25.0 °F 8.6 °F 21.0 °F 85% 29.61 in 1.5 mi NNW 27.6 mph 39.1 mph N/A   Overcast
5:07 AM 24.8 °F 8.4 °F 21.2 °F 86% 29.52 in 2.5 mi NNW 27.6 mph 38.0 mph N/A   Overcast
5:20 AM 24.8 °F 7.9 °F 21.2 °F 86% 29.52 in 2.0 mi NNW 29.9 mph 38.0 mph N/A   Overcast
5:28 AM 24.8 °F 8.4 °F 21.2 °F 86% 29.53 in 1.5 mi NNW 27.6 mph 39.1 mph N/A   Overcast
5:53 AM 24.8 °F 9.3 °F 21.2 °F 86% 29.54 in 2.5 mi NNW 24.2 mph 38.0 mph N/A   Overcast
6:00 AM 24.8 °F 9.3 °F 21.2 °F 86% 29.54 in 5.0 mi NNW 24.2 mph 34.5 mph N/A   Overcast
6:14 AM 24.8 °F 7.9 °F 21.2 °F 86% 29.55 in 2.0 mi NNW 29.9 mph 39.1 mph N/A   Overcast
6:32 AM 26.6 °F 10.6 °F 21.2 °F 80% 29.56 in 4.0 mi NNW 28.8 mph 39.1 mph N/A   Overcast
6:53 AM 26.1 °F 11.3 °F 21.9 °F 84% 29.66 in 5.0 mi NNW 23.0 mph 34.5 mph N/A   Mostly Cloudy
7:20 AM 26.6 °F 11.4 °F 21.2 °F 80% 29.58 in 4.0 mi NNW 25.3 mph 34.5 mph 0.00 in Snow Light Snow
7:32 AM 26.6 °F 11.7 °F 21.2 °F 80% 29.59 in 4.0 mi NNW 24.2 mph 32.2 mph 0.00 in Snow Light Snow
7:53 AM 26.1 °F 10.7 °F 21.9 °F 84% 29.69 in 4.0 mi NNW 25.3 mph 34.5 mph 0.00 in Snow Light Snow
8:37 AM 26.6 °F 12.4 °F 23.0 °F 86% 29.62 in 5.0 mi NW 21.9 mph 32.2 mph 0.00 in Snow Light Snow
8:49 AM 28.4 °F 13.3 °F 23.0 °F 80% 29.62 in 2.0 mi NNW 27.6 mph 34.5 mph 0.00 in Snow Light Snow
8:53 AM 27.0 °F 11.3 °F 23.0 °F 85% 29.71 in 2.0 mi NNW 27.6 mph 36.8 mph 0.00 in Snow Light Snow
9:08 AM 28.4 °F 14.7 °F 23.0 °F 80% 29.63 in 1.2 mi NNW 21.9 mph 33.4 mph 0.00 in Snow Light Snow
9:22 AM 28.4 °F 13.8 °F 24.8 °F 86% 29.64 in 1.5 mi NNW 25.3 mph 33.4 mph 0.00 in Snow Light Snow
9:42 AM 28.4 °F 15.1 °F 24.8 °F 86% 29.65 in 1.2 mi NNW 20.7 mph 29.9 mph 0.00 in Snow Light Snow
9:53 AM 28.0 °F 13.9 °F 24.1 °F 85% 29.75 in 1.5 mi NNW 23.0 mph - 0.00 in Snow Light Snow
9:57 AM 28.4 °F 15.8 °F 24.8 °F 86% 29.66 in 1.0 mi NNW 18.4 mph 27.6 mph 0.00 in Snow Light Snow
10:02 AM 28.4 °F 15.4 °F 24.8 °F 86% 29.66 in 0.8 mi NNW 19.6 mph 25.3 mph 0.00 in Snow Light Snow
10:11 AM 28.4 °F 16.2 °F 24.8 °F 86% 29.67 in 0.5 mi NNW 17.3 mph - 0.00 in Fog , Snow Snow
10:18 AM 28.4 °F 15.8 °F 24.8 °F 86% 29.67 in 0.5 mi NNW 18.4 mph 24.2 mph 0.00 in Fog , Snow Snow
10:53 AM 28.9 °F 17.3 °F 26.1 °F 89% 29.76 in 0.5 mi NNW 16.1 mph - 0.00 in Fog , Snow Snow
11:29 AM 30.2 °F 16.8 °F 24.8 °F 80% 29.67 in 1.0 mi NNW 23.0 mph 31.1 mph 0.00 in Snow Light Snow
11:35 AM 30.2 °F 15.9 °F 24.8 °F 80% 29.67 in 1.2 mi NNW 26.5 mph 34.5 mph 0.00 in Snow Light Snow
11:43 AM 30.2 °F 16.5 °F 24.8 °F 80% 29.67 in 1.5 mi NW 24.2 mph 34.5 mph 0.00 in Snow Light Snow
11:53 AM 30.0 °F 15.7 °F 25.0 °F 82% 29.77 in 1.8 mi NNW 26.5 mph 33.4 mph 0.00 in Snow Light Snow
12:01 PM 30.2 °F 16.5 °F 24.8 °F 80% 29.68 in 1.0 mi NNW 24.2 mph 34.5 mph 0.00 in Snow Light Snow
12:07 PM 28.4 °F 13.3 °F 24.8 °F 86% 29.68 in 0.5 mi NNW 27.6 mph 35.7 mph 0.00 in Fog , Snow Snow
12:22 PM 26.6 °F 12.4 °F 24.8 °F 93% 29.69 in 0.2 mi North 21.9 mph 32.2 mph 0.00 in Fog , Snow Heavy Snow
12:40 PM 28.4 °F 15.8 °F 24.8 °F 86% 29.70 in 1.2 mi NNW 18.4 mph 27.6 mph 0.00 in Snow Light Snow
12:44 PM 28.4 °F 14.7 °F 24.8 °F 86% 29.70 in 1.8 mi NNW 21.9 mph 28.8 mph 0.00 in Snow Light Snow
12:53 PM 28.0 °F 14.6 °F 23.0 °F 81% 29.80 in 2.5 mi NNW 20.7 mph 31.1 mph 0.00 in Snow Light Snow
1:24 PM 28.4 °F 15.8 °F 24.8 °F 86% 29.71 in 1.2 mi NNW 18.4 mph 27.6 mph 0.00 in Snow Light Snow
1:31 PM 28.4 °F 15.4 °F 24.8 °F 86% 29.72 in 0.8 mi NNW 19.6 mph 27.6 mph 0.00 in Snow Light Snow
1:53 PM 28.0 °F 13.9 °F 24.1 °F 85% 29.82 in 0.8 mi NNW 23.0 mph - 0.00 in Snow Light Snow
2:13 PM 26.6 °F 12.4 °F 23.0 °F 86% 29.74 in 0.5 mi North 21.9 mph 29.9 mph 0.00 in Fog , Snow Snow
2:45 PM 26.6 °F 13.4 °F 21.2 °F 80% 29.77 in 0.8 mi North 18.4 mph - 0.00 in Snow Light Snow
2:49 PM 26.6 °F 13.1 °F 23.0 °F 86% 29.77 in 1.2 mi North 19.6 mph 26.5 mph 0.00 in Snow Light Snow
2:53 PM 26.1 °F 12.3 °F 21.9 °F 84% 29.87 in 1.8 mi North 19.6 mph 26.5 mph 0.00 in Snow Light Snow
2:58 PM 26.6 °F 13.1 °F 21.2 °F 80% 29.77 in 3.0 mi North 19.6 mph 26.5 mph 0.00 in Snow Light Snow
3:11 PM 26.6 °F 14.7 °F 21.2 °F 80% 29.78 in 2.0 mi North 15.0 mph - 0.00 in Snow Light Snow
3:24 PM 26.6 °F 14.3 °F 21.2 °F 80% 29.79 in 1.8 mi NNW 16.1 mph - 0.00 in Snow Light Snow
3:34 PM 26.6 °F 14.7 °F 21.2 °F 80% 29.79 in 3.0 mi North 15.0 mph - 0.00 in Snow Light Snow
3:53 PM 26.1 °F 15.6 °F 21.9 °F 84% 29.90 in 9.0 mi North 11.5 mph - 0.00 in   Overcast
4:53 PM 27.0 °F 12.8 °F 19.0 °F 72% 29.92 in 6.0 mi NNW 21.9 mph - 0.00 in   Overcast
5:53 PM 24.1 °F 9.4 °F 15.1 °F 69% 29.99 in 10.0 mi NW 20.7 mph - N/A   Scattered Clouds
6:53 PM 23.0 °F 9.2 °F 12.0 °F 63% 30.02 in 10.0 mi NW 17.3 mph - N/A   Clear
7:53 PM 21.0 °F 5.7 °F 12.0 °F 68% 30.05 in 10.0 mi NW 19.6 mph - N/A   Clear
8:53 PM 19.0 °F 5.0 °F 10.0 °F 68% 30.07 in 10.0 mi WNW 15.0 mph - N/A   Clear
9:53 PM 15.1 °F 1.1 °F 8.1 °F 74% 30.09 in 10.0 mi WNW 12.7 mph - N/A   Clear
10:53 PM 12.9 °F -2.2 °F 7.0 °F 77% 30.11 in 10.0 mi WNW 13.8 mph - N/A   Clear
11:53 PM 10.9 °F -2.6 °F 5.0 °F 77% 30.13 in 10.0 mi WNW 10.4 mph - N/A   Clear